• En España
  • Lista de países
  • Para 7 días
  • Temperatura del agua
  • Mapa Satelital
  • El tiempo en el mapa
  • Informadores
  • user-avatar
    Iniciar sesión

    Tiempo cada hora Silves

    Hoy, 24 Enero, Miércoles

    Tiempo Temperatura Precipitaciones Viento Presión Humedad
    00:00 +7°C° 0 mm 3 mps 764 mmHg 86%
    01:00 +7°C° 0 mm 2 mps 764 mmHg 86%
    02:00 +6°C° 0 mm 2 mps 764 mmHg 86%
    03:00 +6°C° 0 mm 2 mps 764 mmHg 85%
    04:00 +6°C° 0 mm 2 mps 764 mmHg 85%
    05:00 +6°C° 0 mm 2 mps 764 mmHg 84%
    06:00 +7°C° 0 mm 2 mps 764 mmHg 81%
    07:00 +8°C° 0 mm 2 mps 764 mmHg 78%
    08:00 +9°C° 0 mm 2 mps 764 mmHg 75%
    09:00 +12°C° 0 mm 2 mps 764 mmHg 68%
    10:00 +14°C° 0 mm 2 mps 764 mmHg 60%
    11:00 +16°C° 0 mm 2 mps 764 mmHg 53%
    12:00 +17°C° 0 mm 2 mps 764 mmHg 52%
    13:00 +18°C° 0 mm 2 mps 763 mmHg 50%
    14:00 +18°C° 0 mm 2 mps 763 mmHg 49%
    15:00 +16°C° 0 mm 2 mps 763 mmHg 59%
    16:00 +13°C° 0 mm 3 mps 763 mmHg 68%
    17:00 +11°C° 0 mm 3 mps 763 mmHg 78%
    18:00 +10°C° 0 mm 3 mps 763 mmHg 82%
    19:00 +9°C° 0 mm 3 mps 763 mmHg 86%
    20:00 +9°C° 0 mm 3 mps 764 mmHg 89%
    21:00 +8°C° 0 mm 3 mps 764 mmHg 91%
    22:00 +8°C° 0 mm 3 mps 763 mmHg 92%
    23:00 +8°C° 0 mm 3 mps 763 mmHg 93%

    Mañana, 25 Enero, Jueves

    Tiempo Temperatura Precipitaciones Viento Presión Humedad
    00:00 +8°C° 0 mm 2 mps 763 mmHg 93%
    01:00 +8°C° 0 mm 2 mps 763 mmHg 94%
    02:00 +8°C° 0 mm 2 mps 762 mmHg 94%
    03:00 +8°C° 0 mm 2 mps 762 mmHg 94%
    04:00 +8°C° 0 mm 2 mps 762 mmHg 94%
    05:00 +8°C° 0 mm 2 mps 762 mmHg 95%
    06:00 +9°C° 0 mm 2 mps 762 mmHg 94%
    07:00 +10°C° 0 mm 2 mps 762 mmHg 93%
    08:00 +11°C° 0 mm 3 mps 763 mmHg 92%
    09:00 +12°C° 0,1 mm 3 mps 763 mmHg 91%
    10:00 +12°C° 0,1 mm 4 mps 763 mmHg 91%
    11:00 +12°C° 0,1 mm 5 mps 763 mmHg 90%
    12:00 +13°C° 0 mm 5 mps 763 mmHg 81%
    13:00 +14°C° 0 mm 6 mps 762 mmHg 72%
    14:00 +15°C° 0 mm 6 mps 762 mmHg 63%
    15:00 +12°C° 0 mm 7 mps 762 mmHg 66%
    16:00 +11°C° 0 mm 7 mps 763 mmHg 70%
    17:00 +9°C° 0 mm 7 mps 763 mmHg 73%
    18:00 +9°C° 0 mm 7 mps 764 mmHg 75%
    19:00 +8°C° 0 mm 7 mps 764 mmHg 76%
    20:00 +6°C° 0 mm 7 mps 765 mmHg 78%
    21:00 +5°C° 0 mm 7 mps 765 mmHg 80%
    22:00 +5°C° 0 mm 7 mps 765 mmHg 82%
    23:00 +4°C° 0 mm 7 mps 766 mmHg 84%

    Pasado mañana, 26 Enero, Viernes

    Tiempo Temperatura Precipitaciones Viento Presión Humedad
    00:00 +4°C° 0 mm 6 mps 766 mmHg 85%
    01:00 +3°C° 0 mm 6 mps 766 mmHg 87%
    02:00 +3°C° 0 mm 6 mps 766 mmHg 88%
    03:00 +3°C° 0 mm 6 mps 766 mmHg 88%
    04:00 +3°C° 0 mm 7 mps 766 mmHg 89%
    05:00 +2°C° 0 mm 7 mps 766 mmHg 89%
    06:00 +3°C° 0 mm 7 mps 767 mmHg 86%
    07:00 +4°C° 0 mm 7 mps 767 mmHg 83%
    08:00 +5°C° 0 mm 7 mps 768 mmHg 80%
    09:00 +8°C° 0 mm 7 mps 768 mmHg 72%
    10:00 +10°C° 0 mm 7 mps 768 mmHg 64%
    11:00 +11°C° 0 mm 7 mps 768 mmHg 56%
    12:00 +12°C° 0 mm 7 mps 768 mmHg 54%
    13:00 +12°C° 0 mm 7 mps 768 mmHg 52%
    14:00 +14°C° 0 mm 7 mps 767 mmHg 50%
    15:00 +11°C° 0 mm 7 mps 767 mmHg 56%
    16:00 +10°C° 0 mm 6 mps 767 mmHg 62%
    17:00 +8°C° 0 mm 6 mps 767 mmHg 68%
    18:00 +7°C° 0 mm 6 mps 768 mmHg 72%
    19:00 +6°C° 0 mm 7 mps 768 mmHg 75%
    20:00 +5°C° 0 mm 7 mps 769 mmHg 78%
    21:00 +4°C° 0 mm 7 mps 768 mmHg 82%
    22:00 +4°C° 0 mm 6 mps 768 mmHg 86%
    23:00 +3°C° 0 mm 6 mps 768 mmHg 89%

    27 Enero, Sábado

    Tiempo Temperatura Precipitaciones Viento Presión Humedad
    00:00 +3°C° 0 mm 6 mps 768 mmHg 91%
    01:00 +3°C° 0 mm 6 mps 768 mmHg 92%
    02:00 +2°C° 0 mm 6 mps 768 mmHg 93%
    03:00 +2°C° 0 mm 5 mps 768 mmHg 93%
    04:00 +2°C° 0 mm 5 mps 768 mmHg 94%
    05:00 +2°C° 0 mm 5 mps 767 mmHg 94%
    06:00 +2°C° 0 mm 5 mps 768 mmHg 90%
    07:00 +3°C° 0 mm 5 mps 768 mmHg 86%
    08:00 +5°C° 0 mm 5 mps 768 mmHg 82%
    09:00 +7°C° 0 mm 5 mps 768 mmHg 73%
    10:00 +9°C° 0 mm 5 mps 768 mmHg 65%
    11:00 +12°C° 0 mm 5 mps 768 mmHg 57%
    12:00 +13°C° 0 mm 5 mps 767 mmHg 55%
    13:00 +13°C° 0 mm 5 mps 767 mmHg 53%
    14:00 +14°C° 0 mm 6 mps 766 mmHg 52%
    15:00 +13°C° 0 mm 5 mps 766 mmHg 59%
    16:00 +10°C° 0 mm 5 mps 766 mmHg 66%
    17:00 +9°C° 0 mm 5 mps 766 mmHg 73%
    18:00 +8°C° 0 mm 5 mps 766 mmHg 76%
    19:00 +8°C° 0 mm 6 mps 766 mmHg 80%
    20:00 +7°C° 0 mm 6 mps 766 mmHg 84%
    21:00 +7°C° 0 mm 6 mps 766 mmHg 88%
    22:00 +5°C° 0 mm 6 mps 766 mmHg 91%
    23:00 +5°C° 0 mm 6 mps 766 mmHg 95%

    28 Enero, Domingo

    Tiempo Temperatura Precipitaciones Viento Presión Humedad
    00:00 +5°C° 0 mm 6 mps 765 mmHg 95%
    01:00 +5°C° 0 mm 6 mps 765 mmHg 95%
    02:00 +4°C° 0 mm 6 mps 765 mmHg 95%
    03:00 +4°C° 0 mm 7 mps 765 mmHg 92%
    04:00 +4°C° 0 mm 7 mps 765 mmHg 89%
    05:00 +4°C° 0 mm 8 mps 765 mmHg 86%
    06:00 +4°C° 0 mm 8 mps 765 mmHg 78%
    07:00 +5°C° 0 mm 8 mps 766 mmHg 69%
    08:00 +5°C° 0 mm 8 mps 766 mmHg 60%
    09:00 +8°C° 0 mm 7 mps 766 mmHg 53%
    10:00 +10°C° 0 mm 6 mps 766 mmHg 46%
    11:00 +14°C° 0 mm 6 mps 766 mmHg 38%
    12:00 +14°C° 0 mm 5 mps 766 mmHg 39%
    13:00 +15°C° 0 mm 4 mps 765 mmHg 39%
    14:00 +15°C° 0 mm 4 mps 765 mmHg 40%
    15:00 +14°C° 0 mm 4 mps 765 mmHg 48%
    16:00 +12°C° 0 mm 4 mps 765 mmHg 55%
    17:00 +10°C° 0 mm 4 mps 765 mmHg 63%
    18:00 +8°C° 0 mm 4 mps 765 mmHg 65%
    19:00 +8°C° 0 mm 5 mps 765 mmHg 67%
    20:00 +7°C° 0 mm 6 mps 765 mmHg 69%
    21:00 +5°C° 0 mm 6 mps 765 mmHg 71%
    22:00 +5°C° 0 mm 6 mps 764 mmHg 72%
    23:00 +5°C° 0 mm 6 mps 764 mmHg 73%

    29 Enero, Lunes

    Tiempo Temperatura Precipitaciones Viento Presión Humedad
    00:00 +5°C° 0 mm 6 mps 764 mmHg 71%
    01:00 +5°C° 0 mm 6 mps 763 mmHg 70%
    02:00 +4°C° 0 mm 6 mps 763 mmHg 69%
    03:00 +4°C° 0 mm 6 mps 763 mmHg 69%
    04:00 +4°C° 0 mm 6 mps 763 mmHg 70%
    05:00 +4°C° 0 mm 7 mps 763 mmHg 70%
    06:00 +5°C° 0 mm 7 mps 763 mmHg 69%
    07:00 +6°C° 0 mm 7 mps 763 mmHg 68%
    08:00 +8°C° 0 mm 7 mps 764 mmHg 66%
    09:00 +10°C° 0 mm 7 mps 764 mmHg 61%
    10:00 +12°C° 0 mm 7 mps 764 mmHg 57%
    11:00 +15°C° 0 mm 7 mps 764 mmHg 52%
    12:00 +15°C° 0 mm 7 mps 763 mmHg 50%
    13:00 +16°C° 0 mm 6 mps 763 mmHg 48%
    14:00 +17°C° 0 mm 6 mps 763 mmHg 47%
    15:00 +15°C° 0 mm 5 mps 763 mmHg 54%
    16:00 +13°C° 0 mm 4 mps 763 mmHg 62%
    17:00 +12°C° 0 mm 3 mps 763 mmHg 69%
    18:00 +11°C° 0 mm 3 mps 764 mmHg 71%
    19:00 +10°C° 0 mm 3 mps 764 mmHg 74%
    20:00 +9°C° 0 mm 2 mps 764 mmHg 76%
    21:00 +9°C° 0 mm 3 mps 764 mmHg 76%
    22:00 +8°C° 0 mm 3 mps 764 mmHg 76%
    23:00 +7°C° 0 mm 4 mps 764 mmHg 76%
    Mostrar más